Athens, GA

4:16 PM EDT on May 22, 2018 (GMT -0400)
Athens / Epps

Weather History for KAHN - October, 2012

Change the Weather History Date:

Friday, October 5, 2012

  Actual Average Record
Temperature  
Mean Temperature 68 °F 66 °F  
Max Temperature 82 °F 78 °F 98 °F (1954)
Min Temperature 54 °F 55 °F 38 °F (2014)
Degree Days  
Heating Degree Days 0 2  
Month to date heating degree days 0 9  
Since 1 July heating degree days 2 19  
Cooling Degree Days 3 3  
Month to date cooling degree days 22 19  
Year to date cooling degree days 1950 1834  
Growing Degree Days 18 (Base 50)    
Moisture  
Dew Point 57 °F    
Average Humidity 71    
Maximum Humidity 100    
Minimum Humidity 42    
Precipitation  
Precipitation 0.00 in 0.13 in 2.45 in (1964)
Month to date precipitation 1.79 0.68  
Year to date precipitation 30.40 35.91  
Snow  
Snow 0.00 in 0.00 in 0.00 in (2002)
Month to date snowfall 0.0  
Since 1 July snowfall 0.0  
Since 1 September snowfall 0.0  
Snow Depth -    
Sea Level Pressure  
Sea Level Pressure 30.13 in    
Wind  
Wind Speed 1 mph (West)    
Max Wind Speed 7 mph    
Max Gust Speed 10 mph    
Visibility 6 miles    
Events      
T = Trace of Precipitation, MM = Missing Value Source: NWS Daily Summary

Daily Weather History Graph

Daily Weather History Graph

Search for Another Location

Airport or City:

Astronomy

Oct. 05, 2012 Rise Set
Actual Time 7:31 AM EDT 7:11 PM EDT
Civil Twilight 7:06 AM EDT 7:36 PM EDT
Nautical Twilight 6:37 AM EDT 8:05 PM EDT
Astronomical Twilight 6:08 AM EDT 8:34 PM EDT
Moon 10:46 PM EDT (10/5) 12:25 PM EDT (10/5)
Length of Visible Light 12h 30m
Length of Day
11h 40m
Waning Gibbous, 74% of the Moon is Illuminated
Oct 5
Waning Gibbous
Oct 8
Last Quarter
Oct 15
New
Oct 21
First Quarter
Oct 29
Full

Hourly Weather History & Observations

Time (EDT) Temp. Heat Index Dew Point Humidity Pressure Visibility Wind Dir Wind Speed Gust Speed Precip Events Conditions
12:51 AM 61.0 °F - 59.0 °F 93% 30.20 in 6.0 mi Calm Calm - N/A   Clear
1:51 AM 60.8 °F - 57.2 °F 88% 30.20 in 6.0 mi WNW 3.5 mph - N/A   Clear
2:51 AM 59.0 °F - 57.0 °F 93% 30.19 in 5.0 mi Calm Calm - N/A   Clear
3:51 AM 57.9 °F - 57.0 °F 97% 30.17 in 5.0 mi Calm Calm - N/A   Clear
4:51 AM 57.0 °F - 55.9 °F 96% 30.16 in 4.0 mi Calm Calm - N/A   Clear
5:51 AM 55.0 °F - 54.0 °F 96% 30.18 in 3.0 mi NW 3.5 mph - N/A   Clear
6:51 AM 55.0 °F - 54.0 °F 96% 30.19 in 3.0 mi Calm Calm - N/A   Clear
7:43 AM 53.6 °F - 53.6 °F 100% 30.20 in 2.5 mi Calm Calm - N/A   Clear
7:51 AM 54.0 °F - 53.1 °F 97% 30.20 in 2.0 mi Calm Calm - N/A   Clear
8:09 AM 55.4 °F - 55.4 °F 100% 30.21 in 3.0 mi Calm Calm - N/A   Clear
8:51 AM 60.1 °F - 55.9 °F 86% 30.20 in 4.0 mi Calm Calm - N/A   Clear
9:51 AM 64.9 °F - 59.0 °F 81% 30.19 in 5.0 mi North 3.5 mph - N/A   Haze
10:51 AM 70.0 °F - 60.1 °F 71% 30.19 in 6.0 mi Calm Calm - N/A   Haze
11:51 AM 73.9 °F - 60.1 °F 62% 30.17 in 6.0 mi Calm Calm - N/A   Haze
12:51 PM 78.1 °F - 60.1 °F 54% 30.15 in 7.0 mi Calm Calm - N/A   Clear
1:51 PM 80.1 °F 80.2 °F 55.9 °F 43% 30.12 in 8.0 mi Calm Calm - N/A   Clear
2:51 PM 78.8 °F - 55.4 °F 44% 30.11 in 7.0 mi Calm Calm - N/A   Clear
3:51 PM 81.0 °F 80.8 °F 55.9 °F 42% 30.06 in 7.0 mi Variable 3.5 mph - N/A   Clear
4:51 PM 81.0 °F 80.8 °F 55.9 °F 42% 30.05 in 8.0 mi WSW 4.6 mph - N/A   Clear
5:51 PM 80.1 °F 80.6 °F 57.9 °F 47% 30.04 in 7.0 mi West 4.6 mph - N/A   Clear
6:51 PM 75.0 °F - 57.0 °F 53% 30.04 in 7.0 mi Calm Calm - N/A   Clear
7:51 PM 66.0 °F - 60.1 °F 81% 30.04 in 8.0 mi SSE 3.5 mph - N/A   Clear
8:51 PM 64.0 °F - 61.0 °F 90% 30.04 in 7.0 mi Calm Calm - N/A   Clear
9:51 PM 66.0 °F - 59.0 °F 78% 30.05 in 7.0 mi Calm Calm - N/A   Clear
10:51 PM 66.0 °F - 60.1 °F 81% 30.04 in 7.0 mi South 4.6 mph - N/A   Clear
11:51 PM 62.6 °F - 60.8 °F 94% 30.06 in 6.0 mi Calm Calm - N/A   Clear